| time (UTC) | temp F | wind direction | speed MPH | gust MPH | rain 1hr in | rain 24hr in | rain mn in | humidity % | barometer mb |
| 20260507210414 | 71 | 339 | 0.0 | 0.0 | 0.00 | 0.00 | 0.00 | 16 | 1014.6 |
| 20260507205909 | 71 | 310 | 0.0 | 4.0 | 0.00 | 0.00 | 0.00 | 16 | 1014.6 |
| 20260507205409 | 71 | 307 | 0.0 | 0.0 | 0.00 | 0.00 | 0.00 | 16 | 1014.6 |
| 20260507204910 | 71 | 330 | 0.0 | 9.0 | 0.00 | 0.00 | 0.00 | 16 | 1014.6 |
| 20260507203408 | 71 | 42 | 0.0 | 3.0 | 0.00 | 0.00 | 0.00 | 16 | 1014.6 |
| 20260507202904 | 70 | 334 | 0.0 | 0.0 | 0.00 | 0.00 | 0.00 | 17 | 1014.6 |
| 20260507202359 | 69 | 338 | 0.0 | 4.0 | 0.00 | 0.00 | 0.00 | 17 | 1014.6 |
| 20260507201859 | 70 | 356 | 0.0 | 0.0 | 0.00 | 0.00 | 0.00 | 17 | 1015.6 |
| 20260507201354 | 70 | 321 | 0.0 | 3.0 | 0.00 | 0.00 | 0.00 | 17 | 1015.6 |
| 20260507200854 | 70 | 342 | 0.0 | 0.0 | 0.00 | 0.00 | 0.00 | 17 | 1015.6 |
| 20260507195850 | 70 | 335 | 0.0 | 4.0 | 0.00 | 0.00 | 0.00 | 17 | 1014.6 |
| 20260507194346 | 71 | 0 | 0.0 | 0.0 | 0.00 | 0.00 | 0.00 | 16 | 1014.6 |
| 20260507193347 | 70 | 327 | 0.0 | 9.0 | 0.00 | 0.00 | 0.00 | 17 | 1014.6 |
| 20260507192843 | 71 | 324 | 0.0 | 0.0 | 0.00 | 0.00 | 0.00 | 16 | 1014.6 |
| 20260507192344 | 71 | 337 | 0.0 | 7.0 | 0.00 | 0.00 | 0.00 | 16 | 1014.6 |
| 20260507191339 | 70 | 325 | 0.0 | 9.0 | 0.00 | 0.00 | 0.00 | 17 | 1014.6 |
| 20260507190337 | 69 | 318 | 6.0 | 7.0 | 0.00 | 0.00 | 0.00 | 17 | 1014.6 |
| 20260507185834 | 70 | 351 | 0.0 | 6.0 | 0.00 | 0.00 | 0.00 | 17 | 1014.6 |
| 20260507185335 | 69 | 324 | 0.0 | 12.0 | 0.00 | 0.00 | 0.00 | 17 | 1014.6 |
| 20260507183831 | 69 | 45 | 0.0 | 10.0 | 0.00 | 0.00 | 0.00 | 17 | 1014.6 |
| 20260507183329 | 68 | 315 | 0.0 | 12.0 | 0.00 | 0.00 | 0.00 | 17 | 1014.6 |
| 20260507181815 | 68 | 331 | 4.0 | 6.0 | 0.00 | 0.00 | 0.00 | 17 | 1015.6 |
| 20260507181309 | 67 | 88 | 3.0 | 8.0 | 0.00 | 0.00 | 0.00 | 17 | 1015.6 |
| 20260507180809 | 67 | 345 | 4.0 | 6.0 | 0.00 | 0.00 | 0.00 | 17 | 1015.6 |
| 20260507175807 | 67 | 33 | 4.0 | 9.0 | 0.00 | 0.00 | 0.00 | 17 | 1015.6 |
| 20260507173759 | 67 | 356 | 6.0 | 11.0 | 0.00 | 0.00 | 0.00 | 17 | 1015.6 |
| 20260507172252 | 66 | 90 | 4.0 | 8.0 | 0.00 | 0.00 | 0.00 | 17 | 1015.6 |
| 20260507171752 | 65 | 62 | 3.0 | 12.0 | 0.00 | 0.00 | 0.00 | 17 | 1016.6 |
| 20260507171238 | 65 | 351 | 9.0 | 11.0 | 0.00 | 0.00 | 0.00 | 17 | 1016.6 |
| 20260507170234 | 65 | 334 | 3.0 | 9.0 | 0.00 | 0.00 | 0.00 | 18 | 1016.6 |
| 20260507165730 | 65 | 55 | 4.0 | 8.0 | 0.00 | 0.00 | 0.00 | 18 | 1016.6 |
| 20260507165230 | 65 | 343 | 4.0 | 10.0 | 0.00 | 0.00 | 0.00 | 18 | 1016.6 |
| 20260507164731 | 64 | 351 | 7.0 | 12.0 | 0.00 | 0.00 | 0.00 | 18 | 1016.6 |
| 20260507163726 | 64 | 14 | 4.0 | 8.0 | 0.00 | 0.00 | 0.00 | 18 | 1016.6 |
| 20260507163221 | 64 | 356 | 4.0 | 8.0 | 0.00 | 0.00 | 0.00 | 18 | 1016.6 |
| 20260507162219 | 63 | 325 | 4.0 | 11.0 | 0.00 | 0.00 | 0.00 | 18 | 1016.6 |
| 20260507161214 | 63 | 23 | 7.0 | 15.0 | 0.00 | 0.00 | 0.00 | 18 | 1016.6 |
| 20260507160715 | 63 | 2 | 5.0 | 11.0 | 0.00 | 0.00 | 0.00 | 18 | 1016.6 |
| 20260507160215 | 63 | 68 | 4.0 | 10.0 | 0.00 | 0.00 | 0.00 | 18 | 1016.6 |
| 20260507155706 | 62 | 63 | 7.0 | 9.0 | 0.00 | 0.00 | 0.00 | 18 | 1016.6 |
| 20260507154707 | 62 | 315 | 3.0 | 11.0 | 0.00 | 0.00 | 0.00 | 18 | 1015.6 |
| 20260507154202 | 61 | 60 | 5.0 | 11.0 | 0.00 | 0.00 | 0.00 | 19 | 1015.6 |
| 20260507153203 | 61 | 335 | 3.0 | 10.0 | 0.00 | 0.00 | 0.00 | 19 | 1016.6 |
| 20260507151651 | 62 | 37 | 3.0 | 8.0 | 0.00 | 0.00 | 0.00 | 18 | 1015.6 |
| 20260507151146 | 62 | 351 | 5.0 | 8.0 | 0.00 | 0.00 | 0.00 | 18 | 1015.6 |
| 20260507150646 | 62 | 45 | 4.0 | 10.0 | 0.00 | 0.00 | 0.00 | 18 | 1015.6 |
| 20260507150142 | 62 | 13 | 4.0 | 9.0 | 0.00 | 0.00 | 0.00 | 18 | 1015.6 |
| 20260507145138 | 60 | 351 | 4.0 | 11.0 | 0.00 | 0.00 | 0.00 | 19 | 1016.6 |
| 20260507143635 | 59 | 8 | 5.0 | 8.0 | 0.00 | 0.00 | 0.00 | 22 | 1015.6 |
| 20260507143135 | 59 | 327 | 6.0 | 10.0 | 0.00 | 0.00 | 0.00 | 22 | 1015.6 |
| 20260507142630 | 59 | 351 | 6.0 | 12.0 | 0.00 | 0.00 | 0.00 | 24 | 1015.6 |
| 20260507141626 | 58 | 15 | 4.0 | 10.0 | 0.00 | 0.00 | 0.00 | 26 | 1015.6 |
| 20260507141123 | 57 | 340 | 7.0 | 9.0 | 0.00 | 0.00 | 0.00 | 27 | 1015.6 |
| 20260507140625 | 57 | 308 | 6.0 | 11.0 | 0.00 | 0.00 | 0.00 | 28 | 1015.6 |
| 20260507135620 | 56 | 36 | 6.0 | 8.0 | 0.00 | 0.00 | 0.00 | 32 | 1015.6 |
| 20260507134620 | 56 | 6 | 4.0 | 10.0 | 0.00 | 0.00 | 0.00 | 34 | 1015.6 |
| 20260507134115 | 56 | 343 | 0.0 | 10.0 | 0.00 | 0.00 | 0.00 | 36 | 1015.6 |
| 20260507133115 | 56 | 339 | 5.0 | 10.0 | 0.00 | 0.00 | 0.00 | 36 | 1015.6 |
| 20260507132605 | 56 | 341 | 5.0 | 10.0 | 0.00 | 0.00 | 0.00 | 37 | 1015.6 |
| 20260507130100 | 56 | 356 | 7.0 | 7.0 | 0.00 | 0.00 | 0.00 | 42 | 1014.6 |
| 20260507124556 | 56 | 333 | 0.0 | 6.0 | 0.00 | 0.00 | 0.00 | 47 | 1014.6 |
| 20260507124051 | 55 | 321 | 0.0 | 4.0 | 0.00 | 0.00 | 0.00 | 48 | 1014.6 |
| 20260507122546 | 55 | 346 | 0.0 | 0.0 | 0.00 | 0.00 | 0.00 | 52 | 1014.6 |
| 20260507122046 | 55 | 340 | 0.0 | 7.0 | 0.00 | 0.00 | 0.00 | 52 | 1014.6 |
| 20260507121547 | 55 | 333 | 0.0 | 6.0 | 0.00 | 0.00 | 0.00 | 53 | 1014.6 |
| 20260507114541 | 54 | 322 | 0.0 | 0.0 | 0.00 | 0.00 | 0.00 | 58 | 1014.6 |
| 20260507112536 | 54 | 342 | 0.0 | 6.0 | 0.00 | 0.00 | 0.00 | 59 | 1013.6 |
| 20260507091009 | 56 | 339 | 0.0 | 3.0 | 0.00 | 0.00 | 0.00 | 60 | 1013.6 |
| 20260507080446 | 56 | 22 | 0.0 | 7.0 | 0.00 | 0.00 | 0.00 | 55 | 1013.6 |
| 20260507075946 | 56 | 345 | 5.0 | 7.0 | 0.00 | 0.00 | 0.00 | 54 | 1013.6 |
| 20260507075442 | 57 | 356 | 4.0 | 4.0 | 0.00 | 0.00 | 0.00 | 53 | 1013.6 |
| 20260507074942 | 57 | 346 | 0.0 | 6.0 | 0.00 | 0.00 | 0.00 | 52 | 1013.6 |
| 20260507073438 | 57 | 351 | 0.0 | 4.0 | 0.00 | 0.00 | 0.00 | 52 | 1012.6 |
| 20260507072939 | 57 | 342 | 0.0 | 4.0 | 0.00 | 0.00 | 0.00 | 52 | 1012.6 |
| 20260507072434 | 57 | 336 | 0.0 | 0.0 | 0.00 | 0.00 | 0.00 | 51 | 1012.6 |
| 20260507071934 | 57 | 336 | 3.0 | 4.0 | 0.00 | 0.00 | 0.00 | 51 | 1013.6 |
| 20260507071435 | 57 | 28 | 0.0 | 0.0 | 0.00 | 0.00 | 0.00 | 51 | 1013.6 |
| 20260507070930 | 56 | 351 | 4.0 | 8.0 | 0.00 | 0.00 | 0.00 | 50 | 1013.6 |
| 20260507070431 | 57 | 336 | 5.0 | 7.0 | 0.00 | 0.00 | 0.00 | 50 | 1013.6 |
| 20260507065422 | 57 | 20 | 0.0 | 6.0 | 0.00 | 0.00 | 0.00 | 50 | 1013.6 |
| 20260507063918 | 57 | 5 | 0.0 | 4.0 | 0.00 | 0.00 | 0.00 | 50 | 1012.6 |
| 20260507062412 | 57 | 335 | 3.0 | 6.0 | 0.00 | 0.00 | 0.00 | 51 | 1013.6 |
| 20260507061912 | 57 | 341 | 0.0 | 5.0 | 0.00 | 0.00 | 0.00 | 51 | 1013.6 |
| 20260507061409 | 57 | 347 | 3.0 | 6.0 | 0.00 | 0.00 | 0.00 | 52 | 1013.6 |
| 20260507060904 | 57 | 339 | 0.0 | 6.0 | 0.00 | 0.00 | 0.00 | 51 | 1013.6 |
| 20260507060404 | 57 | 330 | 4.0 | 0.0 | 0.00 | 0.00 | 0.00 | 52 | 1013.6 |
| 20260507055904 | 57 | 7 | 0.0 | 3.0 | 0.00 | 0.00 | 0.00 | 53 | 1013.6 |
| 20260507055356 | 57 | 13 | 0.0 | 3.0 | 0.00 | 0.00 | 0.00 | 53 | 1013.6 |
| 20260507054357 | 57 | 63 | 4.0 | 7.0 | 0.00 | 0.00 | 0.00 | 54 | 1013.6 |
| 20260507053855 | 57 | 344 | 0.0 | 7.0 | 0.00 | 0.00 | 0.00 | 54 | 1013.6 |
| 20260507053353 | 57 | 346 | 3.0 | 5.0 | 0.00 | 0.00 | 0.00 | 54 | 1014.6 |
| 20260507052854 | 57 | 342 | 4.0 | 3.0 | 0.00 | 0.00 | 0.00 | 55 | 1014.6 |
| 20260507052349 | 57 | 267 | 0.0 | 3.0 | 0.00 | 0.00 | 0.00 | 55 | 1014.6 |
| 20260507051849 | 57 | 267 | 0.0 | 4.0 | 0.00 | 0.00 | 0.00 | 55 | 1013.6 |
| 20260507051350 | 57 | 342 | 0.0 | 4.0 | 0.00 | 0.00 | 0.00 | 55 | 1013.6 |
| 20260507050845 | 57 | 64 | 0.0 | 7.0 | 0.00 | 0.00 | 0.00 | 56 | 1013.6 |
| 20260507050346 | 57 | 34 | 0.0 | 4.0 | 0.00 | 0.00 | 0.00 | 56 | 1013.6 |
| 20260507045846 | 57 | 342 | 0.0 | 5.0 | 0.00 | 0.00 | 0.00 | 57 | 1013.6 |
| 20260507045339 | 58 | 351 | 3.0 | 7.0 | 0.00 | 0.00 | 0.00 | 57 | 1013.6 |
| 20260507044339 | 58 | 308 | 0.0 | 7.0 | 0.00 | 0.00 | 0.00 | 58 | 1013.6 |
| 20260507043829 | 58 | 46 | 4.0 | 10.0 | 0.00 | 0.00 | 0.00 | 58 | 1013.6 |
| 20260507043330 | 58 | 65 | 0.0 | 7.0 | 0.00 | 0.00 | 0.00 | 58 | 1014.6 |
| 20260507042328 | 58 | 351 | 6.0 | 8.0 | 0.00 | 0.00 | 0.00 | 58 | 1014.6 |
| 20260507041828 | 58 | 320 | 6.0 | 6.0 | 0.00 | 0.00 | 0.00 | 58 | 1013.6 |
| 20260507041328 | 58 | 351 | 0.0 | 4.0 | 0.00 | 0.00 | 0.00 | 58 | 1013.6 |
| 20260507040826 | 58 | 334 | 3.0 | 7.0 | 0.00 | 0.00 | 0.00 | 58 | 1013.6 |
| 20260507040326 | 58 | 328 | 4.0 | 6.0 | 0.00 | 0.00 | 0.00 | 58 | 1013.6 |
| 20260507035826 | 58 | 14 | 3.0 | 6.0 | 0.00 | 0.00 | 0.00 | 58 | 1013.6 |
| 20260507035322 | 58 | 16 | 0.0 | 9.0 | 0.00 | 0.00 | 0.00 | 58 | 1013.6 |
| 20260507034822 | 59 | 329 | 0.0 | 6.0 | 0.00 | 0.00 | 0.00 | 59 | 1013.6 |
| 20260507034322 | 59 | 356 | 0.0 | 4.0 | 0.00 | 0.00 | 0.00 | 59 | 1013.6 |
| 20260507033817 | 59 | 288 | 0.0 | 5.0 | 0.00 | 0.00 | 0.00 | 59 | 1013.6 |
| 20260507032309 | 59 | 346 | 4.0 | 9.0 | 0.00 | 0.00 | 0.00 | 57 | 1013.6 |
| 20260507025255 | 60 | 336 | 0.0 | 6.0 | 0.00 | 0.00 | 0.00 | 54 | 1013.6 |
| 20260507023750 | 60 | 15 | 3.0 | 3.0 | 0.00 | 0.00 | 0.00 | 53 | 1013.6 |
| 20260507020743 | 60 | 351 | 0.0 | 0.0 | 0.00 | 0.00 | 0.00 | 52 | 1013.6 |
| 20260507020243 | 61 | 29 | 0.0 | 0.0 | 0.00 | 0.00 | 0.00 | 52 | 1013.6 |
| 20260507014741 | 61 | 356 | 0.0 | 3.0 | 0.00 | 0.00 | 0.00 | 52 | 1012.6 |
| 20260507014242 | 61 | 88 | 0.0 | 0.0 | 0.00 | 0.00 | 0.00 | 52 | 1012.6 |
| 20260507013736 | 61 | 60 | 0.0 | 0.0 | 0.00 | 0.00 | 0.00 | 53 | 1012.6 |
| 20260507012737 | 61 | 60 | 4.0 | 0.0 | 0.00 | 0.00 | 0.00 | 52 | 1012.6 |
| 20260507011735 | 61 | 77 | 0.0 | 5.0 | 0.00 | 0.00 | 0.00 | 53 | 1012.6 |
| 20260507011235 | 61 | 50 | 0.0 | 4.0 | 0.00 | 0.00 | 0.00 | 53 | 1012.6 |
| 20260507005231 | 62 | 351 | 3.0 | 0.0 | 0.00 | 0.00 | 0.00 | 51 | 1012.6 |
| 20260507003229 | 62 | 342 | 0.0 | 0.0 | 0.00 | 0.00 | 0.00 | 50 | 1013.6 |
| 20260506235723 | 63 | 356 | 0.0 | 0.0 | 0.00 | 0.00 | 0.00 | 53 | 1012.6 |
| 20260506235217 | 63 | 356 | 0.0 | 0.0 | 0.00 | 0.00 | 0.00 | 53 | 1012.6 |
| 20260506232210 | 63 | 343 | 0.0 | 7.0 | 0.00 | 0.00 | 0.00 | 53 | 1013.6 |
| 20260506223156 | 65 | 347 | 0.0 | 0.0 | 0.00 | 0.00 | 0.00 | 51 | 1012.6 |
| 20260506215119 | 67 | 338 | 3.0 | 11.0 | 0.00 | 0.00 | 0.00 | 46 | 1012.6 |